STARLINK-5743 (55597 NORAD) Tracking and Keplerian Element Data

This shows tracking and keplerian element data for the satellite.

Feedback or suggestion? Click here.




ElementValue
Catalog55597
NameSTARLINK-5743
Epoch Orbit130
Epoch Day84.91667824
Epoch Year2023
RAAN105.89
Inclination43.0001
Eccentricity0.0001574
Argument of Perigee257.5856
Mean Anonmoly17.26
Mean Motion15.48908775
Decay Rate-0.00013436
L11 55597U 23020AE 23084.91667824 -.00013436 00000+0 -23733-3 0 9997
L22 55597 43.0001 105.8900 0001574 257.5856 17.2600 15.48908775 1303



Live tracking and technical data element details for STARLINK-5743 (NORAD 55597). STARLINK-5743 can be tracked NOW for your location showing map with azimuth and elevation plus other details from your city location.







IsCatalogInMostPopularTable: catalog: 55597, numindb: -1

Insert: records affected: 1


GetName: 55597 STARLINK-5743

Hit Count: inserted at: Tue, 28 Mar 2023 02:02:01 GMT